Smyrna, TN

11:24 AM CDT on March 26, 2017 (GMT -0500)
Smyrna

Weather History for KMQY - June, 2014

Change the Weather History Date:

Thursday, June 26, 2014

  Actual Average Record
Temperature  
Mean Temperature 78 °F -  
Max Temperature 92 °F 83 °F 97 °F (2007)
Min Temperature 66 °F 67 °F 62 °F (2001)
Cooling Degree Days 13    
Growing Degree Days 28 (Base 50)    
Moisture  
Dew Point 69 °F    
Average Humidity 73    
Maximum Humidity 100    
Minimum Humidity 45    
Precipitation  
Precipitation 0.00 in - - ()
Sea Level Pressure  
Sea Level Pressure 30.06 in    
Wind  
Wind Speed 2 mph (West)    
Max Wind Speed 6 mph    
Max Gust Speed -    
Visibility 10 miles    
Events      
Averages and records for this station are not official NWS values.
T = Trace of Precipitation, MM = Missing Value Source: NWS Daily Summary

Daily Weather History Graph

Daily Weather History Graph

Search for Another Location

Airport or City:

Trip Planner

Search our weather history database for the weather conditions in past years. The results will help you decide how hot, cold, wet, or windy it might be!

Date:

Astronomy

Jun. 26, 2014 Rise Set
Actual Time 5:31 AM CDT 8:06 PM CDT
Civil Twilight 5:00 AM CDT 8:37 PM CDT
Nautical Twilight 4:23 AM CDT 9:14 PM CDT
Astronomical Twilight 3:41 AM CDT 9:56 PM CDT
Moon 5:07 AM CDT 7:30 PM CDT
Length of Visible Light 15h 36m
Length of Day
14h 35m
Waning Crescent, 0% of the Moon is Illuminated
Jun 26
Waning Crescent
Jun 27
New
Jul 5
First Quarter
Jul 12
Full
Jul 18
Last Quarter

Hourly Weather History & Observations

Time (CDT) Temp. Heat Index Dew Point Humidity Pressure Visibility Wind Dir Wind Speed Gust Speed Precip Events Conditions
12:56 AM 70.0 °F - 66.9 °F 90% 30.08 in 10.0 mi Calm Calm - N/A   Clear
1:56 AM 68.9 °F - 68.0 °F 97% 30.08 in 10.0 mi Calm Calm - N/A   Clear
3:56 AM 66.9 °F - 65.8 °F 96% 30.08 in 10.0 mi Calm Calm - N/A   Clear
4:56 AM 68.0 °F - 68.0 °F 100% 30.07 in 10.0 mi SSE 3.5 mph - N/A   Clear
5:56 AM 66.9 °F - 66.9 °F 100% 30.08 in 10.0 mi Calm Calm - N/A   Clear
6:56 AM 70.0 °F - 70.0 °F 100% 30.09 in 10.0 mi Calm Calm - N/A   Clear
7:56 AM 75.9 °F - 68.9 °F 79% 30.10 in 10.0 mi Variable 3.5 mph - N/A   Clear
8:56 AM 81.9 °F 85.6 °F 70.0 °F 67% 30.10 in 10.0 mi Calm Calm - N/A   Clear
9:56 AM 86.9 °F 90.3 °F 68.0 °F 53% 30.09 in 10.0 mi Variable 4.6 mph - N/A   Clear
10:56 AM 90.0 °F 93.6 °F 68.0 °F 48% 30.08 in 10.0 mi Variable 3.5 mph - N/A   Partly Cloudy
11:56 AM 90.9 °F 94.0 °F 66.9 °F 45% 30.07 in 10.0 mi Variable 3.5 mph - N/A   Mostly Cloudy
12:56 PM 90.0 °F 92.4 °F 65.8 °F 45% 30.07 in 10.0 mi Variable 3.5 mph - N/A   Mostly Cloudy
1:56 PM 88.9 °F 92.6 °F 68.0 °F 50% 30.05 in 10.0 mi SSW 4.6 mph - N/A   Partly Cloudy
2:56 PM 88.9 °F 92.6 °F 68.0 °F 50% 30.03 in 10.0 mi WSW 5.8 mph - N/A   Partly Cloudy
4:56 PM 88.0 °F 91.4 °F 68.0 °F 51% 29.99 in 10.0 mi Calm Calm - N/A   Scattered Clouds
5:56 PM 84.9 °F 90.1 °F 70.9 °F 63% 29.99 in 10.0 mi North 5.8 mph - N/A   Partly Cloudy
6:56 PM 83.8 °F 88.6 °F 70.9 °F 65% 30.01 in 10.0 mi North 4.6 mph - N/A   Partly Cloudy
7:56 PM 81.0 °F 84.7 °F 70.9 °F 71% 30.02 in 10.0 mi West 4.6 mph - N/A   Overcast
8:56 PM 77.9 °F - 66.9 °F 69% 30.03 in 10.0 mi West 5.8 mph - N/A   Clear
9:56 PM 77.9 °F - 70.0 °F 76% 30.05 in 10.0 mi West 4.6 mph - N/A   Mostly Cloudy
10:56 PM 73.9 °F - 70.0 °F 87% 30.06 in 10.0 mi Calm Calm - N/A   Clear
11:56 PM 72.9 °F - 70.9 °F 93% 30.06 in 7.0 mi Calm Calm - N/A   Clear